Regional Weather Roundup
Issued by NWS Little Rock, AR

Home | Current Version | Previous Version | Graphics & Text | Print | Product List | Glossary On
Versions: 1 2 3 4 5 6 7 8 9 10 11 12 13 14 15 16 17 18 19 20 21 22 23 24 25 26 27 28 29 30 31 32 33 34 35 36 37 38 39 40 41 42 43 44 45 46 47 48 49 50
000
ASUS44 KLZK 281605
RWRLZK

WEATHER ROUNDUP FOR ARKANSAS
NATIONAL WEATHER SERVICE LITTLE ROCK AR
1100 AM CDT SAT MAY 28 2016

NOTE: "FAIR" INDICATES FEW OR NO CLOUDS BELOW 12,000 FEET WITH NO
SIGNIFICANT WEATHER AND/OR OBSTRUCTIONS TO VISIBILITY.

ARZ001-003-010-029-281700-
NORTHWEST ARKANSAS

CITY           SKY/WX    TMP DP  RH WIND       PRES   REMARKS
FAYETTEVILLE   PTSUNNY   72  65  78 SW9       29.98R
FORT SMITH     CLOUDY    74  62  66 W8        29.97R
HARRISON       SUNNY     77  64  64 W5        29.97R
BENTONVILLE    CLOUDY    70  61  73 SW10G16   29.98R
ROGERS           N/A     70  63  78 SW12G18   29.99R
SILOAM SPGS    CLOUDY    70  57  64 S9        29.98R
HIGHFILL       CLOUDY    69  64  84 SW10      29.97R
SPRINGDALE     PTSUNNY   72  63  73 SW14      29.99R
$$

ARZ004-005-016-281700-
NORTH CENTRAL ARKANSAS

CITY           SKY/WX    TMP DP  RH WIND       PRES   REMARKS
BATESVILLE     CLOUDY    79  64  61 S9        29.98R
FLIPPIN        SUNNY    N/A N/A N/A SE3       29.92R
MTN HOME       SUNNY     76  64  66 SE6       29.95R
$$

ARZ040-041-281700-
WEST CENTRAL ARKANSAS

CITY           SKY/WX    TMP DP  RH WIND       PRES   REMARKS
MENA           CLOUDY    72  66  83 SW5       30.01R
MOUNT IDA      CLOUDY    71  62  73 VRB5      29.97R
$$

ARZ009-017-025-026-028-281700-
NORTHEAST ARKANSAS

CITY           SKY/WX    TMP DP  RH WIND       PRES   REMARKS
CORNING          N/A     77  68  73 S13       30.00R
JONESBORO      MOSUNNY   77  68  73 S12       29.99R
NEWPORT        CLOUDY    79  68  69 S10       30.00R
WALNUT RIDGE   MOSUNNY   75  66  73 S12       29.99R
BLYTHEVILLE    PTSUNNY   78  67  68 S15       30.01R
$$

ARZ022-023-033-042-044-281700-
CENTRAL ARKANSAS

CITY           SKY/WX    TMP DP  RH WIND       PRES   REMARKS
LITTLE ROCK    PTSUNNY   78  65  63 SE7       29.99R
N LITTLE ROCK    N/A     77  65  66 S5        29.97R
JACKSONVILLE   PTSUNNY   78  67  68 VRB7      29.98R
SEARCY         PTSUNNY   78  69  73 S8        30.00R
HOT SPRINGS    CLOUDY    74  64  71 SW8       29.99R
RUSSELLVILLE   CLOUDY    74  64  71 VRB6      29.97R
CLINTON        PTSUNNY   77  66  69 SW7       29.98R
$$

ARZ036-281700-
EAST ARKANSAS

CITY           SKY/WX    TMP DP  RH WIND       PRES   REMARKS
WEST MEMPHIS   MOSUNNY   79  69  71 SE15      30.00R
$$

ARZ050-053-066-070-073-281700-
SOUTHWEST ARKANSAS

CITY           SKY/WX    TMP DP  RH WIND       PRES   REMARKS
ARKADELPHIA    PTSUNNY   76  65  68 S3        29.99R
CAMDEN         PTSUNNY   77  63  61 S5        29.99R
TEXARKANA      CLOUDY    69  64  84 SW8       29.99R
EL DORADO      MOSUNNY   75  66  73 VRB6      29.99R
DE QUEEN       CLOUDY    68  65  90 W6        29.98R
$$

ARZ056-057-069-281700-
SOUTHEAST ARKANSAS

CITY           SKY/WX    TMP DP  RH WIND       PRES   REMARKS
PINE BLUFF     MOSUNNY   77  65  66 S13       29.99R
STUTTGART      PTSUNNY   79  64  61 S14       29.99R
MONTICELLO     PTSUNNY   77  66  68 SE9       30.00R

$$





USA.gov is the U.S. government's official web portal to all federal, state and local government web resources and services.